Time,TemperatureF,DewpointF,PressureIn,WindDirection,WindDirectionDegrees,WindSpeedMPH,WindSpeedGustMPH,Humidity,HourlyPrecipIn,Conditions,Clouds,dailyrainin,SolarRadiationWatts/m^2,SoftwareType,DateUTC
2013-03-11 09:14:00,36.2,36.0,29.59,NW,313,0.0,1.0,98,0.00,,,0.03,32,weatherlink.com 1.10,2013-03-11 14:14:00,
2013-03-11 09:21:00,36.2,36.0,29.59,NW,313,0.0,1.0,98,0.00,,,0.03,35,weatherlink.com 1.10,2013-03-11 14:21:00,
2013-03-11 09:32:00,36.4,36.0,29.57,NW,313,0.0,2.0,98,0.01,,,0.04,90,weatherlink.com 1.10,2013-03-11 14:32:00,
2013-03-11 09:47:00,36.5,36.0,29.56,NW,311,1.0,2.0,98,0.01,,,0.04,97,weatherlink.com 1.10,2013-03-11 14:47:00,
2013-03-11 10:02:00,36.8,36.0,29.55,NW,314,1.0,3.0,98,0.01,,,0.04,81,weatherlink.com 1.10,2013-03-11 15:02:00,
2013-03-11 10:17:00,36.7,36.0,29.56,WNW,285,1.0,3.0,98,0.01,,,0.04,60,weatherlink.com 1.10,2013-03-11 15:17:00,
2013-03-11 10:32:00,36.5,36.0,29.55,WNW,299,1.0,6.0,98,0.00,,,0.04,83,weatherlink.com 1.10,2013-03-11 15:32:00,
2013-03-11 10:47:00,36.6,36.0,29.56,WNW,296,1.0,3.0,98,0.00,,,0.04,86,weatherlink.com 1.10,2013-03-11 15:47:00,
2013-03-11 11:02:00,37.0,37.0,29.55,NW,307,1.0,3.0,98,0.00,,,0.04,188,weatherlink.com 1.10,2013-03-11 16:02:00,
2013-03-11 11:17:00,37.4,37.0,29.55,NW,307,0.0,2.0,98,0.01,,,0.05,171,weatherlink.com 1.10,2013-03-11 16:17:00,
2013-03-11 11:32:00,37.6,37.0,29.54,South,182,0.0,1.0,98,0.01,,,0.05,257,weatherlink.com 1.10,2013-03-11 16:32:00,
2013-03-11 11:47:00,37.8,37.0,29.54,West,261,0.0,2.0,98,0.02,,,0.06,120,weatherlink.com 1.10,2013-03-11 16:47:00,
2013-03-11 12:02:00,37.5,37.0,29.54,SSE,163,0.0,2.0,98,0.02,,,0.06,130,weatherlink.com 1.10,2013-03-11 17:02:00,
2013-03-11 12:18:00,37.9,37.0,29.53,West,265,1.0,2.0,98,0.01,,,0.06,171,weatherlink.com 1.10,2013-03-11 17:18:00,
2013-03-11 12:33:00,38.1,38.0,29.53,SW,218,0.0,2.0,98,0.01,,,0.06,221,weatherlink.com 1.10,2013-03-11 17:33:00,
2013-03-11 12:48:00,38.4,38.0,29.54,SW,219,0.0,1.0,98,0.00,,,0.06,91,weatherlink.com 1.10,2013-03-11 17:48:00,
2013-03-11 13:03:00,37.7,37.0,29.53,SSW,194,1.0,3.0,97,0.00,,,0.06,93,weatherlink.com 1.10,2013-03-11 18:03:00,
2013-03-11 13:18:00,37.8,37.0,29.53,South,191,1.0,1.0,97,0.00,,,0.06,111,weatherlink.com 1.10,2013-03-11 18:18:00,
2013-03-11 13:33:00,37.5,37.0,29.52,South,191,0.0,1.0,97,0.00,,,0.06,93,weatherlink.com 1.10,2013-03-11 18:33:00,
2013-03-11 13:48:00,37.4,37.0,29.52,South,191,0.0,1.0,97,0.00,,,0.06,53,weatherlink.com 1.10,2013-03-11 18:48:00,
2013-03-11 14:03:00,37.2,37.0,29.51,South,191,0.0,2.0,97,0.00,,,0.06,40,weatherlink.com 1.10,2013-03-11 19:03:00,
2013-03-11 14:18:00,37.1,36.0,29.50,SSW,194,1.0,2.0,97,0.00,,,0.06,44,weatherlink.com 1.10,2013-03-11 19:18:00,
2013-03-11 14:48:00,36.4,36.0,29.49,North,360,1.0,4.0,97,0.00,,,0.06,49,weatherlink.com 1.10,2013-03-11 19:48:00,
2013-03-11 15:03:00,36.0,35.0,29.50,NW,320,1.0,5.0,97,0.00,,,0.06,51,weatherlink.com 1.10,2013-03-11 20:03:00,
2013-03-11 15:18:00,35.8,35.0,29.50,North,355,1.0,3.0,97,0.00,,,0.06,49,weatherlink.com 1.10,2013-03-11 20:18:00,
2013-03-11 15:33:00,35.5,35.0,29.50,NW,305,0.0,4.0,97,0.01,,,0.07,49,weatherlink.com 1.10,2013-03-11 20:33:00,
2013-03-11 15:48:00,35.3,35.0,29.51,WNW,295,3.0,4.0,97,0.01,,,0.07,49,weatherlink.com 1.10,2013-03-11 20:48:00,
2013-03-11 16:03:00,35.2,35.0,29.51,NW,311,2.0,6.0,97,0.01,,,0.07,35,weatherlink.com 1.10,2013-03-11 21:03:00,
2013-03-11 16:18:00,35.0,34.0,29.52,WNW,293,0.0,4.0,97,0.01,,,0.07,42,weatherlink.com 1.10,2013-03-11 21:18:00,
2013-03-11 16:33:00,34.8,34.0,29.53,NNE,19,1.0,3.0,97,0.01,,,0.08,37,weatherlink.com 1.10,2013-03-11 21:33:00,
2013-03-11 16:48:00,34.8,34.0,29.53,WNW,293,0.0,7.0,97,0.01,,,0.08,33,weatherlink.com 1.10,2013-03-11 21:48:00,
2013-03-11 17:28:00,34.6,34.0,29.55,WNW,289,2.0,3.0,97,0.01,,,0.09,33,weatherlink.com 1.10,2013-03-11 22:28:00,
2013-03-11 17:33:00,34.6,34.0,29.56,West,280,0.0,4.0,97,0.01,,,0.09,30,weatherlink.com 1.10,2013-03-11 22:33:00,
2013-03-11 17:48:00,34.2,34.0,29.57,WNW,300,2.0,4.0,97,0.01,,,0.09,19,weatherlink.com 1.10,2013-03-11 22:48:00,
2013-03-11 18:03:00,34.3,34.0,29.58,SSW,196,3.0,3.0,97,0.02,,,0.10,11,weatherlink.com 1.10,2013-03-11 23:03:00,
2013-03-11 18:18:00,34.3,34.0,29.58,South,188,0.0,3.0,97,0.01,,,0.10,11,weatherlink.com 1.10,2013-03-11 23:18:00,
2013-03-11 18:33:00,34.3,34.0,29.59,WSW,242,1.0,3.0,97,0.01,,,0.10,7,weatherlink.com 1.10,2013-03-11 23:33:00,
2013-03-11 18:48:00,34.3,34.0,29.59,SE,140,0.0,2.0,97,0.01,,,0.10,0,weatherlink.com 1.10,2013-03-11 23:48:00,
2013-03-11 19:03:00,34.3,34.0,29.60,SSW,205,0.0,3.0,97,0.01,,,0.11,0,weatherlink.com 1.10,2013-03-12 00:03:00,
2013-03-11 19:18:00,34.3,34.0,29.61,WNW,296,1.0,3.0,97,0.01,,,0.11,0,weatherlink.com 1.10,2013-03-12 00:18:00,
2013-03-11 19:33:00,34.3,34.0,29.62,WNW,287,0.0,5.0,97,0.01,,,0.11,0,weatherlink.com 1.10,2013-03-12 00:33:00,
2013-03-11 19:48:00,34.3,34.0,29.62,NNW,335,2.0,3.0,97,0.01,,,0.11,0,weatherlink.com 1.10,2013-03-12 00:48:00,
2013-03-11 20:03:00,34.2,33.0,29.63,South,186,2.0,5.0,96,0.01,,,0.12,0,weatherlink.com 1.10,2013-03-12 01:03:00,
2013-03-11 20:18:00,34.1,33.0,29.64,WNW,282,1.0,3.0,96,0.01,,,0.12,0,weatherlink.com 1.10,2013-03-12 01:18:00,
2013-03-11 20:33:00,34.1,33.0,29.64,West,260,0.0,6.0,96,0.01,,,0.12,0,weatherlink.com 1.10,2013-03-12 01:33:00,
2013-03-11 20:48:00,33.8,33.0,29.64,WSW,239,2.0,6.0,96,0.01,,,0.12,0,weatherlink.com 1.10,2013-03-12 01:48:00,
2013-03-11 21:03:00,33.7,33.0,29.65,WNW,289,1.0,7.0,96,0.00,,,0.12,0,weatherlink.com 1.10,2013-03-12 02:03:00,
2013-03-11 21:18:00,33.6,33.0,29.66,NW,311,3.0,6.0,96,0.00,,,0.12,0,weatherlink.com 1.10,2013-03-12 02:18:00,
2013-03-11 21:33:00,33.4,32.0,29.67,NW,319,3.0,11.0,96,0.00,,,0.12,0,weatherlink.com 1.10,2013-03-12 02:33:00,
2013-03-11 21:48:00,33.2,32.0,29.67,NW,307,2.0,7.0,96,0.00,,,0.12,0,weatherlink.com 1.10,2013-03-12 02:48:00,
2013-03-11 22:03:00,33.0,32.0,29.67,WNW,288,3.0,10.0,95,0.00,,,0.12,0,weatherlink.com 1.10,2013-03-12 03:03:00,
2013-03-11 22:19:00,32.9,31.0,29.68,WNW,288,1.0,9.0,94,0.00,,,0.12,0,weatherlink.com 1.10,2013-03-12 03:19:00,
2013-03-11 22:34:00,32.9,31.0,29.69,NW,310,1.0,5.0,93,0.00,,,0.12,0,weatherlink.com 1.10,2013-03-12 03:34:00,
2013-03-11 22:49:00,32.8,31.0,29.69,ESE,123,1.0,7.0,93,0.00,,,0.12,0,weatherlink.com 1.10,2013-03-12 03:49:00,
2013-03-11 23:04:00,32.8,31.0,29.70,WNW,292,1.0,8.0,92,0.00,,,0.12,0,weatherlink.com 1.10,2013-03-12 04:04:00,
2013-03-11 23:19:00,32.7,30.0,29.71,WNW,287,2.0,9.0,91,0.00,,,0.12,0,weatherlink.com 1.10,2013-03-12 04:19:00,
2013-03-11 23:34:00,32.5,30.0,29.72,WNW,300,2.0,9.0,90,0.00,,,0.12,0,weatherlink.com 1.10,2013-03-12 04:34:00,
2013-03-11 23:49:00,32.5,30.0,29.72,WNW,302,2.0,5.0,90,0.00,,,0.12,0,weatherlink.com 1.10,2013-03-12 04:49:00,